Flag for United Kingdom Weather past 2 weeks in Plymouth, England, United Kingdom

55 °F

Drizzle. Partly sunny.

Feels Like: 50 °F
Forecast: N/A
Wind: 23 mph from West

Location: Exeter Airport

Current Time: Nov 30, 2015 at 3:35:50 PM

Latest Report: Nov 30, 2015 at 3:20 PM

Visibility: N/A

Pressure: 30.01 "Hg

Humidity: 88%

Dew point: 52 °F

Location of PlymouthLocation

Historic Weather in Plymouth — Graph


Plymouth temperature yesterday

Maximum temperature yesterday: 57 °F (at 1:50 PM)
Minimum temperature yesterday: 52 °F (at 8:20 PM)
Average temperature yesterday: 54 °F

Past Weeks' High & Low Weather Summary

High63 °F (Nov 17, 1:20 PM)100% (Nov 16, 7:50 PM)30.30 "Hg (Nov 16, 7:50 PM)
Low27 °F (Nov 23, 7:50 AM)53% (Nov 21, 11:20 AM)29.59 "Hg (Nov 17, 11:50 AM)
Average50 °F88%29.94 "Hg
* Reported Nov 15 2:20 PM — Nov 30 2:20 PM, Plymouth, Weather by CustomWeather, © 2015

Note: Actual official high and low records may vary slightly from our data, if they occured in-between our weather recording intervals... More about our weather records


Plymouth weather history for previous 24 hours

Time TempWeatherWind HumidityBarometerVisibility
2:20 PM
Mon, Nov 30
55 °FDrizzle. Partly sunny.24 mph88%30.01 "HgN/A
1:50 PM55 °FDrizzle. Partly sunny.21 mph88%30.01 "HgN/A
1:20 PM55 °FPartly sunny.24 mph82%30.01 "HgN/A
12:50 PM55 °FPartly sunny.25 mph82%30.01 "HgN/A
12:20 PM55 °FPartly sunny.25 mph82%30.01 "HgN/A
11:50 AM55 °FPartly sunny.23 mph82%30.04 "HgN/A
11:20 AM54 °FPartly sunny.20 mph88%30.04 "HgN/A
10:50 AM54 °FScattered clouds.22 mph82%30.07 "HgN/A
10:20 AM55 °FPartly sunny.17 mph77%30.07 "HgN/A
9:50 AM52 °FScattered showers. Partly sunny.13 mph94%30.07 "HgN/A
9:20 AM54 °FScattered showers. Partly sunny.16 mph88%30.07 "HgN/A
8:50 AM54 °FScattered showers. Scattered clouds.20 mph82%30.07 "HgN/A
8:20 AM54 °FPassing clouds.16 mph77%30.07 "HgN/A
7:20 AM54 °FPassing clouds.16 mph82%30.07 "HgN/A
6:50 AM54 °FPassing clouds.15 mph82%30.07 "HgN/A
6:20 AM54 °FPassing clouds.15 mph88%30.07 "HgN/A
9:50 PM
Sun, Nov 29
52 °FLight rain. Passing clouds.16 mph94%30.07 "Hg5 mi
9:20 PM52 °FSprinkles. Passing clouds.12 mph94%30.04 "HgN/A
8:50 PM52 °FRain showers. Partly cloudy.14 mph94%30.04 "Hg5 mi
8:20 PM52 °FSprinkles. Passing clouds.17 mph94%30.01 "HgN/A
7:50 PM54 °FRain showers. Fog.24 mph88%29.98 "Hg3 mi
6:50 PM55 °FPassing clouds.28 mph82%29.95 "HgN/A
6:20 PM55 °FPassing clouds.28 mph82%29.95 "HgN/A
5:50 PM55 °FPassing clouds.25 mph82%29.95 "HgN/A
5:20 PM54 °FPassing clouds.25 mph88%29.95 "HgN/A
4:50 PM55 °FPassing clouds.29 mph77%29.92 "HgN/A
4:20 PM55 °FPassing clouds.28 mph82%29.92 "HgN/A
3:50 PM54 °FRain showers. Partly sunny.26 mph88%29.92 "HgN/A
3:20 PM55 °FRain showers. Partly sunny.30 mph77%29.89 "HgN/A
Weather by CustomWeather, © 2015

See weather overviewHow to use our weather pages